Weather observations for the past three days for
Dayton / Wright-Patterson Air Force Base
Metric (Imperial)
Date Time (edt) Wind (kph) Vis. (km) Weather Sky Cond. Temperature (ºC) Relative Humidity Wind Chill (°C) Heat Index (°C) Pressure Precipitation (cm)
Air Dwpt 6 hour altimeter (cm) sea level (mb) 1 hr 3 hr 6 hr
Max. Min.
21 11:55 W 15 16.09 Mostly Cloudy SCT050 BKN070 32 18.5 45% 33 76.76 1022.9
21 10:55 W 7 16.09 Partly Cloudy SCT060 31.4 20 51% 33 76.78 1023.2
21 09:55 Calm 16.09 Partly Cloudy SCT060 29.4 20 57% 31 76.81 1023.5
21 08:55 W 6 16.09 A Few Clouds FEW060 27.6 20.1 64% 29 76.84 1023.8
21 07:55 Calm 16.09 Mostly Cloudy BKN070 24.3 21.4 25 21.6 84% 25 76.84 1023.9
21 06:55 Calm 14.48 Partly Cloudy SCT065 22.3 20.6 90% 76.81 0.0
21 05:55 Calm 16.09 Fair CLR 22.4 20.5 89% 76.78 1023.2
21 04:55 Calm 9.66 Fair with Haze CLR 22.4 19.9 86% 76.76 1022.9
21 03:55 Calm 16.09 Fair CLR 23.3 19.8 81% 76.76 1022.9
21 02:55 Calm 16.09 Fair CLR 23.7 20 80% 76.78 1023.2
21 01:55 Calm 16.09 Fair CLR 24.9 20.1 32.8 24.4 75% 26 76.78 1023.2
21 00:55 Calm 16.09 Fair CLR 25.6 19.9 71% 27 76.81 1023.5
20 23:55 Calm 16.09 Fair CLR 26.3 19.7 67% 28 76.81 1023.5
20 22:55 Calm 16.09 Fair CLR 26.6 20.2 68% 28 76.81 1023.5
20 21:55 W 7 16.09 Fair CLR 30 19.3 53% 31 76.78 1023.2
20 20:55 W 7 16.09 Mostly Cloudy BKN060 31.3 19.6 50% 33 76.76 1022.9
20 19:55 W 7 16.09 Fair CLR 32.6 19.4 34.2 31.9 46% 34 76.73 1022.5
20 18:55 SW 11 16.09 A Few Clouds FEW045 33.2 19.3 44% 35 76.73 1022.5
20 17:55 SW 11 16.09 Partly Cloudy SCT045 33.7 19 42% 35 76.76 1022.9
20 16:55 NW 11 16.09 Partly Cloudy SCT040 33.4 19.1 43% 35 76.81 1023.6
20 15:55 W 7 16.09 Fair CLR 33.8 20.2 45% 36 76.86 1024.2
20 14:55 Calm 16.09 Partly Cloudy FEW040 FEW170 SCT210 32.9 19.7 46% 35 76.89 1024.6
20 13:55 NW 9 16.09 Partly Cloudy FEW170 SCT220 32.1 20 32.4 25.8 49% 34 76.94 1025.3
20 12:56 W 9 16.09 Partly Cloudy FEW042 SCT220 31.6 19.9 50% 34 76.96 1025.6
20 11:55 SW 11 16.09 Partly Cloudy FEW038 SCT060 SCT200 31.4 20 51% 33 76.99 1026.0
20 09:55 NW 11 16.09 A Few Clouds FEW045 29.1 20.8 61% 31 76.96 1025.6
20 08:55 W 7 16.09 Partly Cloudy SCT044 27.4 21.6 71% 30 76.96 1025.6
20 07:55 Calm 16.09 A Few Clouds FEW049 25.7 21.8 25.7 24.3 79% 27 76.96 1025.6
20 06:55 Calm 16.09 Mostly Cloudy BKN043 BKN050 24.9 21.4 81% 26 76.94 1025.3
20 05:55 SE 7 16.09 Mostly Cloudy FEW039 BKN049 BKN210 24.6 21.1 81% 25 76.91 1024.9
20 04:55 S 6 16.09 A Few Clouds FEW039 FEW050 24.9 21 79% 26 76.91 1024.9
20 03:55 SE 6 16.09 Mostly Cloudy SCT036 BKN048 25.1 21.2 79% 26 76.91 1024.9
20 02:55 S 11 16.09 Mostly Cloudy BKN031 25.1 21.2 79% 26 76.89 1024.6
20 01:55 SE 7 16.09 A Few Clouds FEW032 25.2 21.3 31.1 25.1 79% 26 76.91 1024.9
20 00:55 S 7 16.09 Fair CLR 25.8 21 75% 27 76.89 1024.6
19 23:55 SE 9 16.09 Overcast OVC220 27.1 21.4 71% 29 76.89 1024.6
19 22:55 SE 11 16.09 Overcast OVC210 27.9 21.4 68% 30 76.89 1024.6
19 21:55 SE 11 16.09 Overcast OVC200 29.2 21.1 62% 32 76.81 1023.6
19 20:55 S 17 16.09 Overcast BKN055 OVC190 30.2 21.5 60% 33 76.78 1023.2
19 19:55 SE 20 16.09 Mostly Cloudy BKN043 BKN200 31.2 21.3 33.6 31.2 56% 34 76.73 1022.6
19 18:55 S 11 16.09 A Few Clouds FEW200 31.7 20.9 53% 34 76.76 1022.9
19 17:55 S 9 16.09 Mostly Cloudy SCT075 BKN200 32.7 20.2 48% 35 76.78 1023.3
19 16:55 SE 11 16.09 Mostly Cloudy SCT075 SCT180 BKN210 33.1 19.9 46% 35 76.78 1023.3
19 15:55 S 13 16.09 A Few Clouds FEW180 32.9 20.1 47% 35 76.78 1023.3
19 14:55 SE 11 16.09 A Few Clouds FEW220 33.1 20.2 47% 36 76.78 1023.3
19 13:55 Calm 16.09 Partly Cloudy SCT046 32.3 20.5 33.1 25.6 50% 35 76.84 1023.9
19 12:55 S 7 16.09 A Few Clouds FEW039 32.3 21.5 53% 36 76.86 1024.2
19 11:55 W 7 16.09 Fair CLR 30.8 21.5 58% 34 76.86 1024.2
19 10:55 S 9 16.09 Fair CLR 29.8 22.5 65% 33 76.86 1024.2
19 09:55 S 11 16.09 Fair CLR 28.7 22.6 70% 32 76.86 1024.2
19 08:55 S 11 16.09 Fair CLR 27.8 22 71% 30 76.86 1024.2
19 07:55 Calm 16.09 Fair CLR 25.7 21.5 25.8 23 78% 27 76.84 1023.9
19 06:55 Calm 16.09 Fair CLR 23.3 21.2 88% 76.78 1023.3
19 05:55 Calm 16.09 Fair CLR 23 21.1 89% 76.71 1022.3
19 04:55 Calm 16.09 Fair CLR 23.5 21.4 88% 76.68 1021.9
19 03:55 Calm 16.09 Fair CLR 23.8 21.7 88% 76.63 1021.2
19 02:55 Calm 16.09 Fair CLR 23.9 21.8 88% 24 76.66 1021.5
19 01:55 NE 6 16.09 Fair CLR 23.6 21.1 31.5 23.6 86% 76.66 1021.6
19 00:55 NW 6 16.09 Fair CLR 26.6 22 76% 29 76.63 1021.1
18 23:55 SE 6 16.09 Fair CLR 27.5 21.5 70% 30 76.61 1020.8
18 22:55 SE 7 16.09 Fair CLR 28.4 21.1 65% 31 76.58 1020.5
18 21:55 SE 9 16.09 Mostly Cloudy FEW050 BKN200 29.3 21.2 62% 32 76.56 1020.2
18 20:55 S 9 16.09 Mostly Cloudy SCT050 BKN090 30.4 20.6 56% 33 76.5 1019.5
18 19:55 S 11 16.09 Mostly Cloudy SCT050 BKN090 31.4 20.9 34.7 30.5 54% 34 76.53 1019.8
18 18:55 S 11 16.09 Mostly Cloudy FEW050 SCT090 BKN200 32 20.2 50% 34 76.5 1019.5
18 17:55 SW 6 16.09 Partly Cloudy SCT055 31.3 20.8 54% 34 76.53 1019.9
18 16:55 S 9 16.09 Mostly Cloudy BKN060 33.1 18.4 42% 34 76.53 1019.9
18 15:55 SW 17 16.09 Partly Cloudy FEW050 SCT090 34.7 18.2 38% 36 76.56 1020.1
18 14:55 SW 15 16.09 Mostly Cloudy FEW055 SCT085 SCT160 BKN210 33.3 19 43% 35 76.58 1020.5
18 13:55 S 6 16.09 Partly Cloudy FEW050 FEW150 SCT210 32.4 19.3 33.4 26.2 46% 34 76.61 1020.8
18 12:55 SW 11 16.09 Partly Cloudy FEW049 SCT200 SCT230 32.2 19.4 47% 34 76.61 1020.8
Date Time (edt) Wind (kph) Vis. (km) Weather Sky Cond. Air Dwpt Max. Min. Relative Humidity Wind Chill (°C) Heat Index (°C) altimeter (cm) sea level (mb) 1 hr 3 hr 6 hr
6 hour
Temperature (ºC) Pressure Precipitation (cm)